Location: Ellerstadt
(49.4644°N, 8.2615°E)
Time: 11:23:00
(UTC+00:00)

USA 306 - Pass Details

Date: 03 March 2021
Orbit: 564 x 577 km, 54.0° (Epoch: 13 April)

Event Time Altitude Azimuth Distance (km) Brightness Sun altitude
Rises 20:00:07 0° 291° (WNW) 2,772 7.7 -27.4°
Reaches altitude 10° 20:02:24 10° 296° (WNW) 1,872 6.5 -27.7°
Enters shadow 20:05:20 39° 320° (NW) 857 4.1 -28.1°
